SEBI

Registration No.

INH000000305

Ip Address Lookup

So far visitors:

customizable counter

TRIAL

TRIAL

SEND SMS FOR TRIAL

EQUITY - COMMODITY OR BOTH

TO

 09920033678

AND GET TRIAL

 

SEBI Registration No.: INH000000305 *****

* Commodity: 9500/month * Equity: 6000/month


* Gold Package: 7000 * Gold-Silver Package: 8100
*Crude-NG-Copper-Nickel Package: 6000


To See Past Performance, Click Here

For TRIAL / Registration,

click here

Past Performance >> Equity Tips
 
Search
 
Entry Start Date Entry End Date
Exit Start Date Exit End Date
Scrip Name Contract
Package
 

Packages: Precious Metals - Energy and Base Metals - Profit is calculated on basis of 1 lot per call

Package: Equity calls: Profit is calculated as follows:

1. If the scrip is in F & O then 1 lot is counted otherwise

2. Trade of Rs.1,50,000/- per call is counted.

 
Page: ( 1 2 3 4 5 6 7 8 9 10 11 12 13 14 15 16 17 18 19 20 21 22 23 24 25 26 27 28 29 30 31 32 33 34 35 36 37 38 39 40 41 42 43 44 45 46 47 48 49 50 51 52 53 54 55 56 57 58 59 60 61 62 63 64 65 66 67 68 69 70 71 72 73 74 75 76 77 78 79 80 81 82 83 84 85 86 87 88 89 90 91 92 93 94 95 96 97 98 99 100 101 102 103 104 105 106 107 108 109 110 ) [Current Page: 13]
Displaying 901 to 975   Calls
Entry Date Type Scrip Entry Price (Rs) T1
(Rs)
T2
(Rs)
T3
(Rs)
Stop Loss
(Rs)
Exit Date Exit Rate
(Rs)
Profit
(Rs)
 
28-02-18 Buy HINDUNILVR 1336 1344 1348 1350 1324 28-02-18 1324 -7200.00 More
28-02-18 Buy BHARAT FOIRG 768 778 785 790 755 28-02-18 790 26400.00 More
28-02-18 Sell BIOCON 625 615 610 600 635 28-02-18 635 -18000.00 More
28-02-18 Buy RELIANCE 950 955 958 960 940 28-02-18 958 8000.00 More
27-02-18 Buy AJMERA REALTY 244 265 290 325 225 09-03-18 238 -3600.00 More
27-02-18 Buy V2RETAIL 404 414 418 425 390 27-02-18 424 7500.00 More
27-02-18 Sell SBI 275 272 271 270 278 27-02-18 270 15000.00 More
26-02-18 Buy DMART 1293 1315 1320 1325 1264 27-02-18 1325 4000.00 More
26-02-18 Buy GODFRYPH 886 900 905 925 864 26-02-18 915 14500.00 More
23-02-18 Buy JUST DIAL 465 475 480 485 455 26-02-18 474 12600.00 More
23-02-18 Buy M&M 720 735 745 750 700 26-02-18 745 25000.00 More
23-02-18 Sell SUNTV 918 910 905 900 927 23-02-18 912 6000.00 More
22-02-18 Sell TATA STEEL 646 640 638 632 651 22-02-18 638 8488.00 More
22-02-18 Sell JSW STEEL 297 293 291 290 300 22-02-18 300 -9000.00 More
21-02-18 Buy Nifty 10375 10410 10430 10450 10340 21-02-18 10400 3750.00 More
21-02-18 Sell VOLTAS 557 552 548 545 563 21-02-18 553 4000.00 More
21-02-18 Sell ASIAN PAINT 1128 1115 1110 1100 1145 21-02-18 1124 2400.00 More
20-02-18 Buy HDIL 52 55 58 60 50 21-02-18 50 -18000.00 More
20-02-18 Sell SUNTV 915 905 900 895 925 20-02-18 905 10000.00 More
20-02-18 Buy 437 444 448 450 431.50 20-02-18 444 2275.00 More
20-02-18 Sell DLF 223.90 221 218 215 225. 20-02-18 221.90 10000.00 More
19-02-18 Buy BOMDYEING 283 293 298 320 271 27-02-18 271 -7200.00 More
19-02-18 Sell PC Jewellers 370 360 350 389 19-02-18 350 30000.00 More
19-02-18 Buy 1318 1328 1338 1360 1300 19-02-18 1300 -9000.00 More
19-02-18 Sell ESCORTS 892 888 882 880 900 19-02-18 880 13200.00 More
16-02-18 Sell VOLTAS 584 578 576 574 592 16-02-18 577 7000.00 More
16-02-18 Buy ESCORTS 880 884 886 888 876 16-02-18 876 -4400.00 More
16-02-18 Buy Delta Corp 382 392 395 400 372 16-02-18 372 -6000.00 More
15-02-18 Sell AXIS BANK 548 538 535 532 558 15-02-18 543 6000.00 More
15-02-18 Buy LOVABLE 236 242 246 248 232 15-02-18 242 3900.00 More
14-02-18 Buy ONGC 189 193 197 203 186.50 14-02-18 186.50 -9375.00 More
14-02-18 Sell HCL TECH 940 930 920 910 950 14-02-18 935 3500.00 More
12-02-18 Buy BANK NIFTY 25630 25675 25725 25850 25530 12-02-18 25759 10320.00 More
12-02-18 Buy BOMDYEING 253 263 275 290 242 16-02-18 290 22200.00 More
12-02-18 Buy VEDL 315 319 320 322 312 14-02-18 324 15750.00 More
09-02-18 Buy Reliance Power 41.60 43 44 45 40.90 09-02-18 45 44200.00 More
09-02-18 Buy 800 820 825 830 790 09-02-18 830 6000.00 More
08-02-18 Buy Reliance Power 41.60 43 44 45 40.90 08-02-18 43 18200.00 More
08-02-18 Sell Century Textiles 1230 1210 1180 1170 1241 08-02-18 1241 -6050.00 More
07-02-18 Buy L&TFin 157.50 160.50 162.50 164.50 154.50 08-02-18 164.50 31500.00 More
07-02-18 Buy TATA STEEL 661 668 672 675 649 07-02-18 667 6366.00 More
06-02-18 Buy LUPIN 830 860 890 900 808 06-02-18 818 -7200.00 More
06-02-18 Sell ESCORTS 875 860 850 825 905 06-02-18 860 16500.00 More
05-02-18 Buy TECH MAH 625 635 645 660 612 06-02-18 615 -12000.00 More
05-02-18 Sell RELIANCE CAPITAL 444 419 405 400 460 05-02-18 444 0.00 More
05-02-18 Sell BAJAJ AUTO 3185 3125 3100 3075 3300 05-02-18 3146 9750.00 More
02-02-18 Sell ASIAN PAINT 1142 1120 1110 1100 1160 02-02-18 1125 10200.00 More
02-02-18 Sell ESCORTS 873 855 835 825 891 02-02-18 842 34100.00 More
01-02-18 Sell BANK NIFTY 27410 27300 27200 27000 27540 01-02-18 27080 26400.00 More
01-02-18 Sell Nifty 11020 10970 10950 10900 11090 01-02-18 10900 18000.00 More
01-02-18 Buy DHAMPUR SUGAR 190 197 200 205 180 02-02-18 180 -8000.00 More
29-01-18 Buy LT 1421 1431 1435 1441 1409 29-01-18 1436 11250.00 More
25-01-18 Sell Nifty 11040 11010 10980 10970 11080 25-01-18 11012 4200.00 More
25-01-18 Sell BANK NIFTY 27405 27300 27200 27000 27500 25-01-18 27126 22320.00 More
24-01-18 Sell TITAN 905 895 890 880 912 24-01-18 890 22500.00 More
23-01-18 Buy WABAG 635 645 655 675 629 23-01-18 629 -900.00 More
23-01-18 Buy 896 910 920 930 880 23-01-18 880 -1600.00 More
23-01-18 Buy BHARAT FOIRG 736 744 750 760 724 23-01-18 752 19200.00 More
22-01-18 Sell HindZinc 298 295 293 291 301 22-01-18 293 16000.00 More
18-01-18 Buy CANFINHOME 476 486 488 490 466 18-01-18 466 -12500.00 More
17-01-18 Buy LUPIN 904 914 920 924 894 17-01-18 922 10800.00 More
17-01-18 Sell BANK NIFTY 25970 25900 25850 25800 26070 17-01-18 25912 4640.00 More
17-01-18 Sell GRASIM 1236 1226 1220 1210 1245 17-01-18 1212 18000.00 More
16-01-18 Sell HERO MOTOR 3625 3600 3575 3500 3655 16-01-18 3601 4800.00 More
15-01-18 Buy SUNTV 1074 1085 1090 1095 1065 15-01-18 1084.80 10800.00 More
12-01-18 Buy CAPF 832 842 845 852 810 12-01-18 844 9600.00 More
11-01-18 Buy UNION BANK 143 148 150 151 138 12-01-18 138 -20000.00 More
10-01-18 Buy TITAN 928 936 938 940 924 10-01-18 924 -6000.00 More
10-01-18 Buy CEAT 1995 2015 2020 2025 1975 10-01-18 2018 8050.00 More
10-01-18 Buy JUST DIAL 557 565 570 575 550 10-01-18 575 25200.00 More
09-01-18 Buy LUPIN 921 930 935 940 909 09-01-18 930 5400.00 More
08-01-18 Buy BAJAJ ELE 572 580 585 590 564 08-01-18 564 -2120.00 More
08-01-18 Buy JUB FOOD 1900 1920 1940 1960 1880 08-01-18 1950 25000.00 More
08-01-18 Buy BOI 173.50 178 181 190 169.50 09-01-18 169.50 -24000.00 More
05-01-18 Buy BANK NIFTY 25580 25650 25700 25750 25480 05-01-18 25550 -2400.00 More
Page wise profit 516214.00 Rs
Profit 25673567.00 Rs
TRIAL

TRIAL

SEND SMS FOR TRIAL

EQUITY - COMMODITY OR BOTH

TO

 09920033678

AND GET TRIAL